SWA1149 KLAS-KRNO

Flight info

Callsign SWA1149
Flight time 0h 57m
Altitude 36000
Route JOHKR5 KENNO TARVR2
Aircraft B738/M-SDE2E3FGHIRWXY/LB1

Departure

Time 2026-05-07 00:50
Airport Harry Reid International Airport (KLAS)

Arrival

Time 2026-05-07 01:47
Airport Reno Tahoe International Airport (KRNO)
Time Latitude Longitude Altitude Speed Heading
2026-05-07 00:31 36.08339 -115.15268 2116 ft 0 kts 167°
2026-05-07 00:37 36.08359 -115.15277 2116 ft 4 kts 157°
2026-05-07 00:37 36.08383 -115.15291 2116 ft 4 kts 148°
2026-05-07 00:38 36.08406 -115.15309 2115 ft 4 kts 152°
2026-05-07 00:38 36.08423 -115.15318 2113 ft 4 kts 226°
2026-05-07 00:38 36.08426 -115.15312 2114 ft 2 kts 244°
2026-05-07 00:41 36.08426 -115.15313 2114 ft 0 kts 244°
2026-05-07 00:41 36.08424 -115.15318 2113 ft 2 kts 244°
2026-05-07 00:41 36.08412 -115.15349 2114 ft 6 kts 244°
2026-05-07 00:42 36.08388 -115.15411 2118 ft 10 kts 244°
2026-05-07 00:42 36.08351 -115.15489 2120 ft 11 kts 213°
2026-05-07 00:42 36.08275 -115.15463 2121 ft 12 kts 155°
2026-05-07 00:42 36.08194 -115.15416 2125 ft 13 kts 155°
2026-05-07 00:43 36.08117 -115.15341 2123 ft 16 kts 117°
2026-05-07 00:43 36.08091 -115.15201 2123 ft 18 kts 97°
2026-05-07 00:43 36.08101 -115.15043 2120 ft 20 kts 89°
2026-05-07 00:43 36.08058 -115.14900 2118 ft 19 kts 153°
2026-05-07 00:44 36.07939 -115.14832 2121 ft 19 kts 156°
2026-05-07 00:44 36.07855 -115.14766 2120 ft 11 kts 110°
2026-05-07 00:44 36.07794 -115.14700 2120 ft 12 kts 140°
2026-05-07 00:44 36.07771 -115.14605 2120 ft 12 kts 95°
2026-05-07 00:45 36.07764 -115.14505 2119 ft 11 kts 95°
2026-05-07 00:45 36.07757 -115.14409 2120 ft 11 kts 91°
2026-05-07 00:45 36.07754 -115.14315 2119 ft 11 kts 90°
2026-05-07 00:45 36.07753 -115.14209 2118 ft 13 kts 90°
2026-05-07 00:46 36.07752 -115.14090 2119 ft 14 kts 90°
2026-05-07 00:46 36.07752 -115.13974 2122 ft 13 kts 89°
2026-05-07 00:46 36.07754 -115.13863 2124 ft 13 kts 89°
2026-05-07 00:46 36.07755 -115.13750 2124 ft 14 kts 91°
2026-05-07 00:47 36.07754 -115.13624 2124 ft 15 kts 90°
2026-05-07 00:47 36.07754 -115.13500 2125 ft 14 kts 90°
2026-05-07 00:47 36.07754 -115.13375 2126 ft 15 kts 90°
2026-05-07 00:47 36.07755 -115.13235 2123 ft 18 kts 90°
2026-05-07 00:48 36.07754 -115.13069 2121 ft 20 kts 90°
2026-05-07 00:48 36.07754 -115.12893 2121 ft 20 kts 89°
2026-05-07 00:48 36.07755 -115.12721 2118 ft 19 kts 89°
2026-05-07 00:48 36.07731 -115.12609 2120 ft 13 kts 154°
2026-05-07 00:49 36.07649 -115.12605 2122 ft 3 kts 206°
2026-05-07 00:49 36.07642 -115.12630 2123 ft 3 kts 269°
2026-05-07 00:49 36.07642 -115.12658 2123 ft 6 kts 269°
2026-05-07 00:49 36.07641 -115.12966 2121 ft 71 kts 270°
2026-05-07 00:50 36.07641 -115.13858 2122 ft 135 kts 270°
2026-05-07 00:50 36.07639 -115.15252 2141 ft 186 kts 270°
2026-05-07 00:50 36.07634 -115.16916 2714 ft 195 kts 270°
2026-05-07 00:50 36.07628 -115.18597 3512 ft 198 kts 270°
2026-05-07 00:51 36.07624 -115.20377 3972 ft 215 kts 269°
2026-05-07 00:51 36.07446 -115.22258 4371 ft 228 kts 259°
2026-05-07 00:51 36.07084 -115.24254 4645 ft 247 kts 251°
2026-05-07 00:51 36.06141 -115.26039 5161 ft 258 kts 220°
2026-05-07 00:52 36.04482 -115.27104 5529 ft 278 kts 199°
2026-05-07 00:52 36.02635 -115.27907 6286 ft 283 kts 200°
2026-05-07 00:52 36.00765 -115.28731 7026 ft 288 kts 200°
2026-05-07 00:52 35.98872 -115.29597 7696 ft 291 kts 205°
2026-05-07 00:53 35.97037 -115.30730 8376 ft 298 kts 210°
2026-05-07 00:53 35.95207 -115.31972 9146 ft 302 kts 211°
2026-05-07 00:53 35.93369 -115.33206 9868 ft 307 kts 210°
2026-05-07 00:53 35.91491 -115.34444 10612 ft 307 kts 209°
2026-05-07 00:54 35.89787 -115.35961 10916 ft 302 kts 232°
2026-05-07 00:54 35.88755 -115.38214 11021 ft 306 kts 256°
2026-05-07 00:54 35.88480 -115.40782 11043 ft 301 kts 273°
2026-05-07 00:54 35.88535 -115.43347 11032 ft 298 kts 275°
2026-05-07 00:55 35.88624 -115.45892 11034 ft 295 kts 275°
2026-05-07 00:55 35.88701 -115.48417 11023 ft 293 kts 274°
2026-05-07 00:55 35.88761 -115.50927 11030 ft 292 kts 274°
2026-05-07 00:55 35.88814 -115.53436 11023 ft 294 kts 274°
2026-05-07 00:56 35.88866 -115.55941 11041 ft 298 kts 274°
2026-05-07 00:56 35.88918 -115.58552 11130 ft 314 kts 274°
2026-05-07 00:56 35.88975 -115.61339 11316 ft 337 kts 274°
2026-05-07 00:56 35.89033 -115.64315 11573 ft 354 kts 273°
2026-05-07 00:57 35.89090 -115.67400 12049 ft 364 kts 274°
2026-05-07 00:57 35.89145 -115.70540 12757 ft 367 kts 274°
2026-05-07 00:57 35.89200 -115.73703 13488 ft 370 kts 274°
2026-05-07 00:57 35.89256 -115.76904 14096 ft 375 kts 274°
2026-05-07 00:58 35.89312 -115.80136 14674 ft 380 kts 274°
2026-05-07 00:58 35.89368 -115.83373 15260 ft 384 kts 274°
2026-05-07 00:58 35.89425 -115.86684 15859 ft 389 kts 274°
2026-05-07 00:58 35.89484 -115.90042 16429 ft 393 kts 275°
2026-05-07 00:59 35.91362 -115.96203 17532 ft 387 kts 314°
2026-05-07 00:59 35.93216 -115.98604 18166 ft 388 kts 318°
2026-05-07 00:59 35.95150 -116.00950 18647 ft 392 kts 319°
2026-05-07 01:00 35.97086 -116.03272 19150 ft 394 kts 319°
2026-05-07 01:00 35.99081 -116.05675 19729 ft 396 kts 319°
2026-05-07 01:00 36.01018 -116.08049 20266 ft 400 kts 318°
2026-05-07 01:00 36.02943 -116.10563 20697 ft 403 kts 316°
2026-05-07 01:01 36.04892 -116.13048 21286 ft 403 kts 319°
2026-05-07 01:01 36.06915 -116.15461 21748 ft 405 kts 320°
2026-05-07 01:01 36.08956 -116.17892 22194 ft 409 kts 319°
2026-05-07 01:01 36.10995 -116.20364 22686 ft 412 kts 319°
2026-05-07 01:02 36.13030 -116.22862 23192 ft 413 kts 319°
2026-05-07 01:02 36.15065 -116.25385 23651 ft 415 kts 318°
2026-05-07 01:02 36.17110 -116.27932 24004 ft 418 kts 318°
2026-05-07 01:02 36.19163 -116.30491 24387 ft 420 kts 318°
2026-05-07 01:03 36.21228 -116.33067 24788 ft 421 kts 318°
2026-05-07 01:03 36.23277 -116.35622 25185 ft 423 kts 318°
2026-05-07 01:03 36.25358 -116.38216 25551 ft 426 kts 318°
2026-05-07 01:03 36.27451 -116.40827 25926 ft 428 kts 319°
2026-05-07 01:04 36.29567 -116.43437 26295 ft 429 kts 319°
2026-05-07 01:04 36.31719 -116.46004 26705 ft 429 kts 320°
2026-05-07 01:04 36.33894 -116.48568 27063 ft 431 kts 320°
2026-05-07 01:04 36.36048 -116.51167 27405 ft 434 kts 319°
2026-05-07 01:05 36.38189 -116.53755 27722 ft 436 kts 320°
2026-05-07 01:05 36.40407 -116.56331 28073 ft 438 kts 320°
2026-05-07 01:05 36.42630 -116.58936 28401 ft 440 kts 320°
2026-05-07 01:05 36.44850 -116.61574 28734 ft 442 kts 320°
2026-05-07 01:06 36.47103 -116.64182 29027 ft 443 kts 321°
2026-05-07 01:06 36.49391 -116.66763 29322 ft 445 kts 321°
2026-05-07 01:06 36.51686 -116.69341 29801 ft 443 kts 321°
2026-05-07 01:06 36.53962 -116.71898 30230 ft 440 kts 321°
2026-05-07 01:07 36.56219 -116.74470 30549 ft 440 kts 321°
2026-05-07 01:07 36.58471 -116.77054 30877 ft 440 kts 321°
2026-05-07 01:07 36.60725 -116.79629 31221 ft 440 kts 321°
2026-05-07 01:07 36.62980 -116.82200 31578 ft 439 kts 321°
2026-05-07 01:08 36.64472 -116.83897 31762 ft 438 kts 321°
2026-05-07 01:08 36.66717 -116.86465 32092 ft 438 kts 320°
2026-05-07 01:08 36.69662 -116.89911 32543 ft 437 kts 320°
2026-05-07 01:08 36.71174 -116.91653 32752 ft 436 kts 321°
2026-05-07 01:09 36.73434 -116.94177 33063 ft 435 kts 324°
2026-05-07 01:09 36.76000 -116.96096 33396 ft 428 kts 337°
2026-05-07 01:09 36.78629 -116.97688 33803 ft 425 kts 336°
2026-05-07 01:09 36.81277 -116.99352 34021 ft 426 kts 335°
2026-05-07 01:10 36.83914 -117.01043 34311 ft 425 kts 335°
2026-05-07 01:10 36.86535 -117.02744 34608 ft 424 kts 335°
2026-05-07 01:10 36.89149 -117.04444 34897 ft 423 kts 335°
2026-05-07 01:11 36.94423 -117.07875 34912 ft 429 kts 335°
2026-05-07 01:11 36.99688 -117.11305 34657 ft 421 kts 335°
2026-05-07 01:11 37.02264 -117.12986 34435 ft 415 kts 335°
2026-05-07 01:12 37.04817 -117.14651 34217 ft 413 kts 335°
2026-05-07 01:12 37.07367 -117.16313 34016 ft 413 kts 335°
2026-05-07 01:12 37.09929 -117.17983 33955 ft 415 kts 335°
2026-05-07 01:13 37.15059 -117.21334 33949 ft 419 kts 334°
2026-05-07 01:13 37.20215 -117.24710 33950 ft 415 kts 334°
2026-05-07 01:14 37.25324 -117.28060 33947 ft 412 kts 334°
2026-05-07 01:14 37.30330 -117.31445 33955 ft 412 kts 327°
2026-05-07 01:15 37.34739 -117.36064 33980 ft 414 kts 321°
2026-05-07 01:15 37.39068 -117.40866 33976 ft 415 kts 322°
2026-05-07 01:16 37.43461 -117.45611 33988 ft 416 kts 322°
2026-05-07 01:16 37.47879 -117.50346 33975 ft 418 kts 322°
2026-05-07 01:17 37.51875 -117.55711 33992 ft 423 kts 311°
2026-05-07 01:17 37.55479 -117.61543 33991 ft 425 kts 311°
2026-05-07 01:18 37.59120 -117.67442 33988 ft 427 kts 311°
2026-05-07 01:18 37.62784 -117.73338 33992 ft 427 kts 311°
2026-05-07 01:19 37.66457 -117.79233 33996 ft 426 kts 311°
2026-05-07 01:19 37.70110 -117.85110 34005 ft 425 kts 311°
2026-05-07 01:20 37.73754 -117.90971 34015 ft 423 kts 311°
2026-05-07 01:20 37.77382 -117.96815 34005 ft 422 kts 311°
2026-05-07 01:21 37.80971 -118.02611 34002 ft 420 kts 311°
2026-05-07 01:21 37.84564 -118.08424 34013 ft 418 kts 311°
2026-05-07 01:22 37.88137 -118.14215 34016 ft 417 kts 311°
2026-05-07 01:22 37.91703 -118.20005 34031 ft 417 kts 311°
2026-05-07 01:23 37.95270 -118.25806 34032 ft 417 kts 311°
2026-05-07 01:23 37.98786 -118.31541 34014 ft 400 kts 311°
2026-05-07 01:23 38.00476 -118.34302 33822 ft 393 kts 311°
2026-05-07 01:24 38.02117 -118.36984 33586 ft 385 kts 311°
2026-05-07 01:24 38.03756 -118.39662 33219 ft 382 kts 311°
2026-05-07 01:24 38.05382 -118.42320 32883 ft 379 kts 311°
2026-05-07 01:24 38.06992 -118.44953 32523 ft 376 kts 311°
2026-05-07 01:25 38.08591 -118.47571 32178 ft 376 kts 311°
2026-05-07 01:25 38.10204 -118.50212 31835 ft 380 kts 311°
2026-05-07 01:25 38.11823 -118.52866 31475 ft 379 kts 311°
2026-05-07 01:25 38.13437 -118.55516 31128 ft 377 kts 310°
2026-05-07 01:26 38.15038 -118.58149 30774 ft 375 kts 310°
2026-05-07 01:26 38.16630 -118.60767 30427 ft 373 kts 310°
2026-05-07 01:26 38.18193 -118.63341 30082 ft 371 kts 310°
2026-05-07 01:26 38.19769 -118.65937 29679 ft 370 kts 310°
2026-05-07 01:27 38.21337 -118.68523 29286 ft 367 kts 310°
2026-05-07 01:27 38.22886 -118.71081 28952 ft 363 kts 310°
2026-05-07 01:27 38.24426 -118.73624 28582 ft 361 kts 310°
2026-05-07 01:27 38.25953 -118.76147 28226 ft 358 kts 310°
2026-05-07 01:28 38.27467 -118.78651 27886 ft 356 kts 310°
2026-05-07 01:28 38.28972 -118.81142 27537 ft 354 kts 310°
2026-05-07 01:28 38.30468 -118.83620 27195 ft 352 kts 310°
2026-05-07 01:28 38.31954 -118.86083 26845 ft 350 kts 310°
2026-05-07 01:29 38.33414 -118.88505 26514 ft 348 kts 310°
2026-05-07 01:29 38.34887 -118.90950 26166 ft 347 kts 310°
2026-05-07 01:29 38.36354 -118.93387 25836 ft 345 kts 310°
2026-05-07 01:29 38.37813 -118.95813 25485 ft 344 kts 310°
2026-05-07 01:30 38.39269 -118.98235 25147 ft 343 kts 310°
2026-05-07 01:30 38.40718 -119.00649 24823 ft 342 kts 310°
2026-05-07 01:30 38.42160 -119.03052 24484 ft 341 kts 310°
2026-05-07 01:30 38.43600 -119.05453 24132 ft 340 kts 310°
2026-05-07 01:31 38.45037 -119.07851 23790 ft 340 kts 310°
2026-05-07 01:31 38.46476 -119.10254 23412 ft 339 kts 310°
2026-05-07 01:31 38.47903 -119.12639 23054 ft 337 kts 310°
2026-05-07 01:31 38.49323 -119.15014 22696 ft 336 kts 310°
2026-05-07 01:32 38.50719 -119.17390 22360 ft 334 kts 308°
2026-05-07 01:32 38.52008 -119.19803 22021 ft 333 kts 307°
2026-05-07 01:32 38.53277 -119.22278 21698 ft 331 kts 306°
2026-05-07 01:32 38.54530 -119.24737 21368 ft 329 kts 306°
2026-05-07 01:33 38.55779 -119.27180 21036 ft 328 kts 306°
2026-05-07 01:33 38.57031 -119.29617 20728 ft 326 kts 306°
2026-05-07 01:33 38.58277 -119.32038 20413 ft 325 kts 306°
2026-05-07 01:33 38.59504 -119.34415 20103 ft 325 kts 306°
2026-05-07 01:34 38.60751 -119.36833 19803 ft 326 kts 306°
2026-05-07 01:34 38.62002 -119.39260 19479 ft 327 kts 306°
2026-05-07 01:34 38.63252 -119.41687 19153 ft 326 kts 306°
2026-05-07 01:34 38.64506 -119.44113 18810 ft 326 kts 307°
2026-05-07 01:35 38.65759 -119.46528 18472 ft 326 kts 307°
2026-05-07 01:35 38.67018 -119.48952 18088 ft 327 kts 307°
2026-05-07 01:35 38.68274 -119.51373 17702 ft 326 kts 306°
2026-05-07 01:35 38.69536 -119.53807 17240 ft 329 kts 306°
2026-05-07 01:36 38.70800 -119.56249 16886 ft 329 kts 306°
2026-05-07 01:36 38.72046 -119.58660 16538 ft 329 kts 306°
2026-05-07 01:36 38.73311 -119.61108 16200 ft 329 kts 306°
2026-05-07 01:36 38.74572 -119.63552 15856 ft 327 kts 306°
2026-05-07 01:37 38.75828 -119.65988 15521 ft 327 kts 306°
2026-05-07 01:37 38.77081 -119.68417 15182 ft 327 kts 305°
2026-05-07 01:37 38.78336 -119.70853 14838 ft 326 kts 305°
2026-05-07 01:37 38.79585 -119.73280 14517 ft 326 kts 305°
2026-05-07 01:38 38.80979 -119.75494 14160 ft 323 kts 323°
2026-05-07 01:38 38.82931 -119.76806 13937 ft 313 kts 345°
2026-05-07 01:38 38.85050 -119.77168 13739 ft 305 kts
2026-05-07 01:38 38.87146 -119.77143 13553 ft 298 kts
2026-05-07 01:39 38.89205 -119.77107 13375 ft 293 kts
2026-05-07 01:39 38.91225 -119.77085 13199 ft 288 kts
2026-05-07 01:39 38.93221 -119.77072 13009 ft 286 kts
2026-05-07 01:39 38.95219 -119.77064 12785 ft 288 kts
2026-05-07 01:40 38.97226 -119.77059 12560 ft 289 kts
2026-05-07 01:40 38.99247 -119.77054 12342 ft 291 kts
2026-05-07 01:40 39.01272 -119.77050 12105 ft 292 kts
2026-05-07 01:40 39.03304 -119.77045 11866 ft 291 kts
2026-05-07 01:41 39.05298 -119.77042 11634 ft 288 kts
2026-05-07 01:41 39.07297 -119.77039 11406 ft 284 kts
2026-05-07 01:41 39.09273 -119.77034 11182 ft 281 kts
2026-05-07 01:41 39.11220 -119.77023 10929 ft 280 kts
2026-05-07 01:42 39.13173 -119.76955 10597 ft 279 kts
2026-05-07 01:42 39.15103 -119.76838 10288 ft 277 kts
2026-05-07 01:42 39.17035 -119.76773 9965 ft 278 kts
2026-05-07 01:42 39.18948 -119.76753 9621 ft 279 kts
2026-05-07 01:43 39.20894 -119.76748 9277 ft 280 kts
2026-05-07 01:43 39.22842 -119.76745 8942 ft 280 kts
2026-05-07 01:43 39.24791 -119.76742 8622 ft 281 kts
2026-05-07 01:43 39.26749 -119.76739 8291 ft 281 kts
2026-05-07 01:44 39.28677 -119.76732 8129 ft 271 kts
2026-05-07 01:44 39.30529 -119.76727 8101 ft 260 kts
2026-05-07 01:44 39.32304 -119.76723 8030 ft 252 kts
2026-05-07 01:44 39.34050 -119.76718 7788 ft 250 kts
2026-05-07 01:45 39.35793 -119.76715 7437 ft 250 kts
2026-05-07 01:45 39.37535 -119.76710 7019 ft 250 kts
2026-05-07 01:45 39.39248 -119.76706 6672 ft 249 kts
2026-05-07 01:45 39.40975 -119.76702 6286 ft 245 kts
2026-05-07 01:46 39.42649 -119.76697 5926 ft 235 kts 360°
2026-05-07 01:46 39.44262 -119.76677 5559 ft 231 kts 359°
2026-05-07 01:46 39.45822 -119.76660 5238 ft 215 kts 358°
2026-05-07 01:46 39.47247 -119.76696 4886 ft 194 kts 356°
2026-05-07 01:47 39.48528 -119.76681 4560 ft 176 kts 357°
2026-05-07 01:47 39.49681 -119.76687 4411 ft 153 kts 360°
2026-05-07 01:47 39.50430 -119.76681 4401 ft 65 kts 359°
2026-05-07 01:47 39.50726 -119.76684 4408 ft 35 kts 359°
2026-05-07 01:48 39.50928 -119.76703 4408 ft 19 kts 341°
2026-05-07 01:48 39.51025 -119.76801 4411 ft 17 kts 315°
2026-05-07 01:48 39.51099 -119.76919 4411 ft 16 kts 281°
2026-05-07 01:48 39.51094 -119.77049 4411 ft 14 kts 249°
2026-05-07 01:49 39.51032 -119.77070 4411 ft 6 kts 171°
2026-05-07 01:49 39.50991 -119.77067 4411 ft 14 kts 179°
2026-05-07 01:49 39.50896 -119.77066 4410 ft 13 kts 180°
2026-05-07 01:49 39.50813 -119.77092 4409 ft 13 kts 232°
2026-05-07 01:50 39.50749 -119.77149 4409 ft 12 kts 181°
2026-05-07 01:50 39.50664 -119.77150 4411 ft 12 kts 182°
2026-05-07 01:50 39.50582 -119.77153 4410 ft 12 kts 181°
2026-05-07 01:50 39.50502 -119.77155 4408 ft 11 kts 181°
2026-05-07 01:51 39.50466 -119.77156 4408 ft 0 kts 180°
2026-05-07 01:51 39.50465 -119.77156 4408 ft 1 kts 180°
2026-05-07 01:52 39.50445 -119.77155 4408 ft 5 kts 178°
2026-05-07 01:52 39.50422 -119.77199 4409 ft 8 kts 284°
2026-05-07 01:52 39.50453 -119.77238 4410 ft 0 kts 320°
2026-05-07 01:53 39.50533 -119.77316 4411 ft 0 kts 179°